Regional Weather Roundup
Issued by NWS Sioux Falls, SD

Home | Current Version | Previous Version | Graphics & Text | Print | Product List | Glossary Off
Versions: 1 2 3 4 5 6 7 8 9 10 11 12 13 14 15 16 17 18 19 20 21 22 23 24 25 26 27 28 29 30 31 32 33 34 35 36 37 38 39 40 41 42 43 44 45 46 47 48 49 50

000
ASUS43 KFSD 200502
RWRFSD

WEATHER ROUNDUP FOR SE SOUTH DAKOTA/SW MINNESOTA/NW IOWA
NATIONAL WEATHER SERVICE SIOUX FALLS SD
1200 AM CDT SAT SEP 20 2014

NOTE: "FAIR" INDICATES FEW OR NO CLOUDS BELOW 12,000 FEET WITH NO
SIGNIFICANT WEATHER AND OR OBSTRUCTIONS TO VISIBILITY.


SDZ038>040-050-052>070-200600-
SOUTHEAST SOUTH DAKOTA

CITY           SKY/WX    TMP DP  RH WIND       PRES   REMARKS
CHAMBERLAIN    MOCLDY    70  55  59 NW9       29.80R
HURON          PTCLDY    63  54  72 NW10      29.75R
MADISON        FAIR      64  63  94 NW6       29.76R
MITCHELL       CLEAR     66  59  78 W6        29.76R
SIOUX FALLS    CLOUDY    74  62  66 W7        29.75R
WINNER         FAIR      70  58  65 S5        29.84F
YANKTON        CLOUDY    72  64  78 W5        29.75S
$$

MNZ071-072-080-081-089-090-097-098-200600-
SOUTHWEST MINNESOTA

CITY           SKY/WX    TMP DP  RH WIND       PRES   REMARKS
FAIRMONT       CLOUDY    66  57  72 SW9       29.76S
JACKSON        CLOUDY    68  63  83 SW10      29.76F
LUVERNE        CLOUDY    70  64  83 S5        29.75R
MARSHALL       PTCLDY    70  63  78 SW7       29.71R
MONTEVIDEO     CLEAR     64  61  88 W3        29.68R
PIPESTONE      PTCLDY    72  57  60 NW7       29.76R
REDWOOD FALLS  PTCLDY    73  67  81 SW8       29.69R
TRACY          PTCLDY    72  66  83 CALM      29.73R
WINDOM         CLOUDY    72  64  78 S13       29.75R
WORTHINGTON    CLOUDY    72  64  78 SW6       29.76S
$$

IAZ001>003-012>014-020>022-031-032-NEZ013-014-SDZ071-200600-
NORTHWEST IOWA

CITY           SKY/WX    TMP DP  RH WIND       PRES   REMARKS
CHEROKEE       TSTM      65  65  99 SW10      29.80F
DENISON        CLOUDY    72  70  94 S14G22    29.78R
ESTHERVILLE    CLOUDY    67  64  90 SW9       29.76F
LE MARS          N/A     68  64  88 SW14G20   29.77R
ORANGE CITY    CLOUDY    70  66  88 S7        29.77S
SHELDON        CLOUDY    68  68 100 S6        29.77R
SIOUX CITY     TSTM      69  66  90 NW13G30   29.81R FOG
SPENCER        LGT RAIN  68  66  93 S5        29.78F
STORM LAKE     HVY RAIN  64  64 100 W23G43    29.88R VSB 3/4
$$

ABBREVIATIONS USED IN REMARKS
   TC - TEMPERATURE IN CELSIUS
  WCI - WIND CHILL INDEX
   HX - HEAT INDEX
  VSB - VISIBILITY



USA.gov is the U.S. government's official web portal to all federal, state and local government web resources and services.